When you browse on this site, cookies collect data to enhance your experience and personalize the content and advertising you see.
Visit our Privacy Policy to learn more. By continuing to use the site, you agree to this use of cookies and data.
  • In Schweiz
  • Länderverzeichnis
  • Für 7 Tage
  • Wassertemperatur
  • Satellitenkarten
  • Wetterkarte
  • Widgets
  • user-avatar
    Anmelden

    Stündliche Wetter Mieleszyn

    Heute, 25 Juni, Dienstag

    Zeit Temperatur Niederschläge Wind Luftdruck Luftfeuchtigkeit
    00:00 +19°C° 0 mm 2 m/S 752 mmHg 83%
    01:00 +18°C° 0 mm 2 m/S 752 mmHg 86%
    02:00 +18°C° 0 mm 3 m/S 752 mmHg 87%
    03:00 +18°C° 0 mm 3 m/S 752 mmHg 88%
    04:00 +18°C° 0 mm 3 m/S 751 mmHg 89%
    05:00 +19°C° 0 mm 3 m/S 752 mmHg 84%
    06:00 +21°C° 0 mm 3 m/S 752 mmHg 80%
    07:00 +22°C° 0 mm 4 m/S 752 mmHg 75%
    08:00 +25°C° 0 mm 4 m/S 752 mmHg 71%
    09:00 +26°C° 0 mm 5 m/S 752 mmHg 67%
    10:00 +28°C° 0 mm 5 m/S 752 mmHg 63%
    11:00 +29°C° 0 mm 5 m/S 752 mmHg 60%
    12:00 +30°C° 0 mm 5 m/S 752 mmHg 58%
    13:00 +32°C° 0 mm 4 m/S 752 mmHg 55%
    14:00 +32°C° 0 mm 4 m/S 752 mmHg 54%
    15:00 +33°C° 0 mm 4 m/S 751 mmHg 53%
    16:00 +33°C° 0 mm 3 m/S 751 mmHg 51%
    17:00 +31°C° 0 mm 3 m/S 751 mmHg 57%
    18:00 +30°C° 0 mm 2 m/S 751 mmHg 63%
    19:00 +28°C° 0 mm 2 m/S 751 mmHg 69%
    20:00 +27°C° 0 mm 2 m/S 751 mmHg 73%
    21:00 +26°C° 0 mm 3 m/S 751 mmHg 77%
    22:00 +24°C° 0 mm 3 m/S 751 mmHg 81%
    23:00 +24°C° 0 mm 3 m/S 751 mmHg 84%

    Morgen, 26 Juni, Mittwoch

    Zeit Temperatur Niederschläge Wind Luftdruck Luftfeuchtigkeit
    00:00 +22°C° 0 mm 3 m/S 751 mmHg 86%
    01:00 +23°C° 0 mm 2 m/S 751 mmHg 89%
    02:00 +23°C° 0 mm 2 m/S 751 mmHg 89%
    03:00 +21°C° 0 mm 2 m/S 750 mmHg 89%
    04:00 +21°C° 0 mm 2 m/S 750 mmHg 89%
    05:00 +24°C° 0 mm 3 m/S 750 mmHg 84%
    06:00 +25°C° 0 mm 3 m/S 750 mmHg 79%
    07:00 +27°C° 0 mm 3 m/S 750 mmHg 73%
    08:00 +28°C° 0 mm 4 m/S 750 mmHg 67%
    09:00 +30°C° 0 mm 4 m/S 750 mmHg 60%
    10:00 +32°C° 0 mm 5 m/S 750 mmHg 53%
    11:00 +33°C° 0 mm 5 m/S 750 mmHg 51%
    12:00 +34°C° 0 mm 5 m/S 749 mmHg 49%
    13:00 +35°C° 0 mm 5 m/S 749 mmHg 47%
    14:00 +35°C° 0 mm 5 m/S 749 mmHg 47%
    15:00 +35°C° 0 mm 5 m/S 748 mmHg 47%
    16:00 +35°C° 0 mm 4 m/S 748 mmHg 47%
    17:00 +34°C° 0 mm 4 m/S 747 mmHg 53%
    18:00 +32°C° 0 mm 4 m/S 747 mmHg 59%
    19:00 +30°C° 0 mm 4 m/S 747 mmHg 66%
    20:00 +29°C° 0.1 mm 4 m/S 747 mmHg 68%
    21:00 +28°C° 0.1 mm 4 m/S 747 mmHg 70%
    22:00 +27°C° 0.1 mm 4 m/S 747 mmHg 73%
    23:00 +25°C° 0.3 mm 4 m/S 747 mmHg 79%

    übermorgen, 27 Juni, Donnerstag

    Zeit Temperatur Niederschläge Wind Luftdruck Luftfeuchtigkeit
    00:00 +23°C° 0.3 mm 4 m/S 748 mmHg 86%
    01:00 +22°C° 0.3 mm 4 m/S 748 mmHg 92%
    02:00 +20°C° 0 mm 4 m/S 748 mmHg 92%
    03:00 +19°C° 0 mm 4 m/S 747 mmHg 93%
    04:00 +18°C° 0 mm 3 m/S 747 mmHg 93%
    05:00 +18°C° 0 mm 4 m/S 748 mmHg 89%
    06:00 +17°C° 0 mm 5 m/S 748 mmHg 85%
    07:00 +17°C° 0 mm 6 m/S 748 mmHg 81%
    08:00 +19°C° 0 mm 6 m/S 748 mmHg 74%
    09:00 +20°C° 0 mm 6 m/S 748 mmHg 67%
    10:00 +21°C° 0 mm 7 m/S 748 mmHg 60%
    11:00 +21°C° 0 mm 7 m/S 748 mmHg 55%
    12:00 +22°C° 0 mm 7 m/S 748 mmHg 51%
    13:00 +23°C° 0 mm 7 m/S 748 mmHg 46%
    14:00 +23°C° 0 mm 7 m/S 748 mmHg 48%
    15:00 +23°C° 0 mm 7 m/S 747 mmHg 50%
    16:00 +23°C° 0 mm 6 m/S 747 mmHg 52%
    17:00 +22°C° 0 mm 6 m/S 747 mmHg 57%
    18:00 +21°C° 0 mm 5 m/S 747 mmHg 62%
    19:00 +20°C° 0 mm 4 m/S 747 mmHg 67%
    20:00 +19°C° 0 mm 4 m/S 747 mmHg 70%
    21:00 +18°C° 0 mm 4 m/S 747 mmHg 74%
    22:00 +17°C° 0 mm 3 m/S 748 mmHg 77%
    23:00 +16°C° 0 mm 3 m/S 748 mmHg 82%

    28 Juni, Freitag

    Zeit Temperatur Niederschläge Wind Luftdruck Luftfeuchtigkeit
    00:00 +16°C° 0 mm 3 m/S 748 mmHg 86%
    01:00 +14°C° 0 mm 3 m/S 748 mmHg 90%
    02:00 +14°C° 0 mm 3 m/S 748 mmHg 92%
    03:00 +14°C° 0 mm 2 m/S 748 mmHg 94%
    04:00 +13°C° 0 mm 2 m/S 748 mmHg 96%
    05:00 +14°C° 0 mm 3 m/S 748 mmHg 91%
    06:00 +16°C° 0 mm 3 m/S 748 mmHg 86%
    07:00 +17°C° 0 mm 4 m/S 748 mmHg 82%
    08:00 +18°C° 0 mm 4 m/S 748 mmHg 77%
    09:00 +19°C° 0 mm 5 m/S 748 mmHg 73%
    10:00 +20°C° 0 mm 6 m/S 748 mmHg 69%
    11:00 +20°C° 0.3 mm 6 m/S 748 mmHg 69%
    12:00 +21°C° 0.3 mm 6 m/S 748 mmHg 68%
    13:00 +21°C° 0.3 mm 6 m/S 748 mmHg 68%
    14:00 +21°C° 0.3 mm 6 m/S 748 mmHg 66%
    15:00 +22°C° 0.3 mm 6 m/S 748 mmHg 64%
    16:00 +22°C° 0.3 mm 6 m/S 748 mmHg 61%
    17:00 +21°C° 0 mm 5 m/S 748 mmHg 61%
    18:00 +20°C° 0 mm 5 m/S 748 mmHg 61%
    19:00 +19°C° 0 mm 4 m/S 748 mmHg 61%
    20:00 +17°C° 0 mm 3 m/S 749 mmHg 65%
    21:00 +16°C° 0 mm 2 m/S 749 mmHg 70%
    22:00 +14°C° 0 mm 1 m/S 749 mmHg 74%
    23:00 +14°C° 0 mm 1 m/S 749 mmHg 76%

    29 Juni, Samstag

    Zeit Temperatur Niederschläge Wind Luftdruck Luftfeuchtigkeit
    00:00 +12°C° 0 mm 0 m/S 749 mmHg 77%
    01:00 +11°C° 0 mm 0 m/S 749 mmHg 79%
    02:00 +11°C° 0 mm 0 m/S 749 mmHg 80%
    03:00 +12°C° 0 mm 1 m/S 749 mmHg 81%
    04:00 +12°C° 0 mm 1 m/S 749 mmHg 82%
    05:00 +14°C° 0 mm 1 m/S 749 mmHg 76%
    06:00 +15°C° 0 mm 2 m/S 750 mmHg 71%
    07:00 +17°C° 0 mm 2 m/S 750 mmHg 66%
    08:00 +19°C° 0 mm 2 m/S 750 mmHg 61%
    09:00 +20°C° 0 mm 3 m/S 750 mmHg 56%
    10:00 +22°C° 0 mm 3 m/S 750 mmHg 51%
    11:00 +22°C° 0 mm 3 m/S 750 mmHg 49%
    12:00 +24°C° 0 mm 3 m/S 749 mmHg 48%
    13:00 +24°C° 0 mm 3 m/S 749 mmHg 46%
    14:00 +24°C° 0 mm 3 m/S 749 mmHg 47%
    15:00 +24°C° 0 mm 3 m/S 749 mmHg 47%
    16:00 +24°C° 0 mm 3 m/S 748 mmHg 48%
    17:00 +24°C° 0 mm 2 m/S 748 mmHg 52%
    18:00 +23°C° 0 mm 1 m/S 748 mmHg 57%
    19:00 +22°C° 0 mm 1 m/S 748 mmHg 61%
    20:00 +21°C° 0 mm 1 m/S 748 mmHg 62%
    21:00 +20°C° 0 mm 1 m/S 748 mmHg 63%
    22:00 +18°C° 0 mm 2 m/S 748 mmHg 64%
    23:00 +17°C° 0 mm 2 m/S 748 mmHg 65%

    30 Juni, Sonntag

    Zeit Temperatur Niederschläge Wind Luftdruck Luftfeuchtigkeit
    00:00 +17°C° 0 mm 2 m/S 748 mmHg 67%
    01:00 +16°C° 0 mm 3 m/S 748 mmHg 68%
    02:00 +16°C° 0 mm 3 m/S 748 mmHg 70%
    03:00 +16°C° 0 mm 3 m/S 748 mmHg 71%
    04:00 +14°C° 0 mm 3 m/S 747 mmHg 72%
    05:00 +17°C° 0 mm 3 m/S 747 mmHg 68%
    06:00 +19°C° 0 mm 4 m/S 747 mmHg 64%
    07:00 +21°C° 0 mm 4 m/S 747 mmHg 61%
    08:00 +22°C° 0 mm 4 m/S 747 mmHg 56%
    09:00 +25°C° 0 mm 4 m/S 747 mmHg 50%
    10:00 +27°C° 0 mm 4 m/S 747 mmHg 45%
    11:00 +28°C° 0 mm 5 m/S 747 mmHg 44%
    12:00 +28°C° 0 mm 5 m/S 746 mmHg 43%
    13:00 +29°C° 0 mm 5 m/S 746 mmHg 41%
    14:00 +29°C° 0 mm 5 m/S 745 mmHg 43%
    15:00 +29°C° 0 mm 6 m/S 745 mmHg 45%
    16:00 +29°C° 0 mm 6 m/S 745 mmHg 46%
    17:00 +28°C° 0 mm 6 m/S 744 mmHg 52%
    18:00 +26°C° 0 mm 6 m/S 744 mmHg 58%
    19:00 +24°C° 0 mm 6 m/S 744 mmHg 64%
    20:00 +23°C° 0 mm 6 m/S 743 mmHg 67%
    21:00 +22°C° 0 mm 5 m/S 743 mmHg 71%
    22:00 +21°C° 0 mm 5 m/S 743 mmHg 74%
    23:00 +21°C° 0 mm 5 m/S 743 mmHg 74%
    Mehr zeigen